Red Lake, Ontario

12:37 PM CST on December 07, 2016 (GMT -0600)
Red Lake

Weather History for CYRL - May, 2013

Change the Weather History Date:

Monday, May 27, 2013

  Actual Average Record
Temperature  
Mean Temperature 60 °F -  
Max Temperature 75 °F 61 °F 75 °F (2003)
Min Temperature 46 °F 42 °F 28 °F (2008)
Degree Days  
Heating Degree Days 4    
Growing Degree Days 10 (Base 50)    
Moisture  
Dew Point 36 °F    
Average Humidity 36    
Maximum Humidity 66    
Minimum Humidity 14    
Precipitation  
Precipitation 0.00 in - - ()
Sea Level Pressure  
Sea Level Pressure 29.99 in    
Wind  
Wind Speed 7 mph ()    
Max Wind Speed 13 mph    
Max Gust Speed 22 mph    
Visibility 15.0 miles    
Events      
Averages and records for this station are not official NWS values.
T = Trace of Precipitation, MM = Missing Value Source: Averaged Metar Reports

Daily Weather History Graph

Daily Weather History Graph

Search for Another Location

Airport or City:

Trip Planner

Search our weather history database for the weather conditions in past years. The results will help you decide how hot, cold, wet, or windy it might be!

Date:

Astronomy

May. 27, 2013 Rise Set
Actual Time 5:09 AM CDT 9:15 PM CDT
Civil Twilight 4:26 AM CDT 9:59 PM CDT
Nautical Twilight 3:24 AM CDT 11:02 PM CDT
Astronomical Twilight 1:44 AM CDT 12:40 AM CDT
Moon 11:45 PM CDT (5/27) 7:53 AM CDT (5/27)
Length of Visible Light 17h 32m
Length of Day
16h 05m
Waning Gibbous, 91% of the Moon is Illuminated
May 27
Waning Gibbous
May 31
Last Quarter
Jun 8
New
Jun 16
First Quarter
Jun 23
Full

Hourly Weather History & Observations

Time (CDT) Temp. Windchill Dew Point Humidity Pressure Visibility Wind Dir Wind Speed Gust Speed Precip Events Conditions
4:00 AM 46.4 °F 45.2 °F 32.0 °F 57% 30.10 in 15.0 mi SE 3.5 mph - N/A   Partly Cloudy
5:00 AM 48.2 °F - 35.6 °F 62% 30.09 in 15.0 mi ESE 8.1 mph - N/A   Scattered Clouds
6:00 AM 48.2 °F - 37.4 °F 66% 30.10 in 15.0 mi ESE 6.9 mph - N/A   Mostly Cloudy
7:00 AM 54 °F - 39 °F 46% 30.09 in 15 mi SE 5.8 mph - -   Scattered Clouds
7:00 AM 53.6 °F - 39.2 °F 58% 30.09 in 15.0 mi SE 4.6 mph - N/A   Mostly Cloudy
8:00 AM 57.2 °F - 39.2 °F 51% 30.08 in 15.0 mi South 8.1 mph - N/A   Mostly Cloudy
9:00 AM 60.8 °F - 39.2 °F 45% 30.09 in 15.0 mi SSW 6.9 mph - N/A   Mostly Cloudy
10:00 AM 62.6 °F - 39.2 °F 42% 30.07 in 15.0 mi South 4.6 mph - N/A   Mostly Cloudy
11:00 AM 66.2 °F - 39.2 °F 37% 30.04 in 15.0 mi SE 5.8 mph - N/A   Partly Cloudy
12:00 PM 68.0 °F - 37.4 °F 33% 30.01 in 15.0 mi ESE 12.7 mph - N/A   Partly Cloudy
1:00 PM 72 °F - 36 °F 17% 29.98 in 15 mi SE 9.2 mph - -   Clear
1:00 PM 71.6 °F - 37.4 °F 29% 29.98 in 15.0 mi ESE 12.7 mph 21.9 mph N/A   Partly Cloudy
2:00 PM 73.4 °F - 33.8 °F 23% 29.97 in 15.0 mi ESE 11.5 mph - N/A   Partly Cloudy
3:00 PM 73.4 °F - 33.8 °F 23% 29.94 in 15.0 mi SE 12.7 mph 20.7 mph N/A   Mostly Cloudy
4:00 PM 75.2 °F - 35.6 °F 24% 29.92 in 15.0 mi ESE 11.5 mph 21.9 mph N/A   Scattered Clouds
5:00 PM 73.4 °F - 35.6 °F 25% 29.90 in 15.0 mi ESE 11.5 mph 18.4 mph N/A   Scattered Clouds
6:00 PM 73.4 °F - 32.0 °F 22% 29.89 in 15.0 mi SE 11.5 mph - N/A   Mostly Cloudy
7:00 PM 72 °F - 33 °F 14% 29.88 in 15 mi SE 10.4 mph - -   Mostly Cloudy
7:00 PM 71.6 °F - 33.8 °F 25% 29.87 in 15.0 mi ESE 9.2 mph - N/A   Mostly Cloudy
8:00 PM 69.8 °F - 33.8 °F 27% 29.88 in 15.0 mi SE 6.9 mph - N/A   Mostly Cloudy
9:00 PM 62.6 °F - 35.6 °F 37% 29.86 in 15.0 mi ESE 5.8 mph - N/A   Scattered Clouds